Weather History for KCCU - April, 2013

Change the Weather History Date:

Monday, April 1, 2013

  Actual Average (KLXV) Record (KLXV)
Temperature  
Mean Temperature 32 °F -  
Max Temperature 37 °F 40 °F 58 °F (2012)
Min Temperature 28 °F 15 °F -5 °F (1988)
Degree Days  
Heating Degree Days 32 38  
Since 1 July heating degree days 9021  
Moisture  
Dew Point 18 °F    
Average Humidity 56    
Maximum Humidity 80    
Minimum Humidity 41    
Precipitation  
Precipitation 0.00 in 0.03 in 0.20 in (1980)
Month to date precipitation 0.03  
Year to date precipitation 2.29  
Sea Level Pressure  
Sea Level Pressure 30.17 in    
Wind  
Wind Speed 15 mph (SSW)    
Max Wind Speed 25 mph    
Max Gust Speed 33 mph    
Visibility 9 miles    
Events Snow , Thunderstorm    
T = Trace of Precipitation, MM = Missing Value Source: NWS Daily Summary

Daily Weather History Graph

Daily Weather History Graph

Search for Another Location

Airport or City:

Trip Planner

Search our weather history database for the weather conditions in past years. The results will help you decide how hot, cold, wet, or windy it might be!

Date:

Astronomy

Apr. 01, 2013 Rise Set
Actual Time 6:48 AM MDT 7:28 PM MDT
Civil Twilight 6:21 AM MDT 7:56 PM MDT
Nautical Twilight 5:49 AM MDT 8:28 PM MDT
Astronomical Twilight 5:16 AM MDT 9:01 PM MDT
Moon 12:38 AM MDT (4/1) 10:39 AM MDT (4/1)
Length of Visible Light 13h 34m
Length of Day
12h 40m
Waning Gibbous, 66% of the Moon is Illuminated
Apr 1
Waning Gibbous
Apr 2
Last Quarter
Apr 10
New
Apr 18
First Quarter
Apr 25
Full

Hourly Weather History & Observations

Time (MDT) Temp. Windchill Dew Point Humidity Pressure Visibility Wind Dir Wind Speed Gust Speed Precip Events Conditions
12:12 AM 33.8 °F 24.8 °F 14.0 °F 44% 30.25 in 10.0 mi South 12.7 mph - N/A   Clear
12:32 AM 32.0 °F 23.0 °F 12.2 °F 44% 30.25 in 10.0 mi South 11.5 mph - N/A   Clear
12:52 AM 32.0 °F 21.6 °F 14.0 °F 48% 30.24 in 10.0 mi South 15.0 mph - N/A   Clear
1:12 AM 33.8 °F 23.5 °F 14.0 °F 44% 30.23 in 10.0 mi South 16.1 mph - N/A   Clear
1:32 AM 33.8 °F 23.5 °F 14.0 °F 44% 30.23 in 10.0 mi South 16.1 mph - N/A   Clear
2:12 AM 32.0 °F 20.8 °F 10.4 °F 41% 30.22 in 10.0 mi South 17.3 mph - N/A   Clear
2:32 AM 32.0 °F 20.1 °F 10.4 °F 41% 30.21 in 10.0 mi South 19.6 mph - N/A   Clear
2:52 AM 32.0 °F 20.1 °F 12.2 °F 44% 30.21 in 10.0 mi South 19.6 mph - N/A   Clear
3:12 AM 32.0 °F 20.1 °F 12.2 °F 44% 30.20 in 10.0 mi South 19.6 mph - N/A   Clear
3:32 AM 32.0 °F 20.5 °F 12.2 °F 44% 30.20 in 10.0 mi South 18.4 mph - N/A   Clear
3:52 AM 32.0 °F 20.1 °F 12.2 °F 44% 30.20 in 10.0 mi South 19.6 mph - N/A   Clear
4:12 AM 32.0 °F 20.8 °F 10.4 °F 41% 30.21 in 10.0 mi South 17.3 mph - N/A   Clear
4:32 AM 32.0 °F 19.2 °F 12.2 °F 44% 30.20 in 10.0 mi South 23.0 mph - N/A   Clear
4:52 AM 32.0 °F 19.5 °F 10.4 °F 41% 30.20 in 10.0 mi South 21.9 mph - N/A   Clear
5:12 AM 32.0 °F 20.8 °F 10.4 °F 41% 30.20 in 10.0 mi South 17.3 mph 23.0 mph N/A   Clear
5:32 AM 32.0 °F 23.6 °F 12.2 °F 44% 30.20 in 10.0 mi SSW 10.4 mph 18.4 mph N/A   Clear
5:52 AM 32.0 °F 23.0 °F 12.2 °F 44% 30.20 in 10.0 mi SW 11.5 mph 18.4 mph N/A   Clear
6:12 AM 32.0 °F 21.2 °F 12.2 °F 44% 30.20 in 10.0 mi South 16.1 mph 20.7 mph N/A   Clear
6:21 AM 32.0 °F 23.0 °F 12.2 °F 44% 30.20 in 10.0 mi South 11.5 mph 17.3 mph N/A   Clear
7:12 AM 32.0 °F 23.0 °F 15.8 °F 51% 30.19 in 10.0 mi SSW 11.5 mph 20.7 mph N/A   Scattered Clouds
7:32 AM 32.0 °F 23.0 °F 14.0 °F 48% 30.20 in 10.0 mi SSW 11.5 mph 20.7 mph N/A   Mostly Cloudy
7:52 AM 30.2 °F 18.5 °F 12.2 °F 47% 30.20 in 10.0 mi South 17.3 mph - N/A   Mostly Cloudy
8:12 AM 32.0 °F 21.2 °F 14.0 °F 48% 30.20 in 10.0 mi South 16.1 mph - N/A   Mostly Cloudy
8:32 AM 32.0 °F 21.2 °F 14.0 °F 48% 30.20 in 10.0 mi South 16.1 mph 21.9 mph N/A   Mostly Cloudy
8:52 AM 32.0 °F 19.5 °F 19.4 °F 60% 30.20 in 10.0 mi South 21.9 mph - N/A   Overcast
9:12 AM 30.2 °F 17.8 °F 21.2 °F 69% 30.19 in 10.0 mi South 19.6 mph - N/A   Overcast
9:32 AM 30.2 °F 17.4 °F 23.0 °F 75% 30.20 in 4.0 mi South 20.7 mph - N/A Snow Light Snow
9:52 AM 30.2 °F 18.1 °F 23.0 °F 75% 30.20 in 1.5 mi South 18.4 mph - N/A Snow Light Snow
10:12 AM 30.2 °F 21.9 °F 23.0 °F 75% 30.20 in 1.8 mi SSW 9.2 mph - N/A Snow , Thunderstorm Light Thunderstorms and Snow
10:32 AM 32.0 °F 22.5 °F 24.8 °F 75% 30.20 in 3.0 mi South 12.7 mph 16.1 mph N/A Snow Light Snow
10:52 AM 33.8 °F 27.7 °F 23.0 °F 65% 30.20 in 10.0 mi West 6.9 mph - N/A   Overcast
11:12 AM 33.8 °F 27.0 °F 21.2 °F 60% 30.20 in 10.0 mi SW 8.1 mph 18.4 mph N/A Thunderstorm Overcast
11:32 AM 33.8 °F 29.6 °F 21.2 °F 60% 30.19 in 10.0 mi SW 4.6 mph - N/A   Overcast
11:52 AM 33.8 °F 27.7 °F 19.4 °F 56% 30.19 in 10.0 mi SW 6.9 mph 17.3 mph N/A   Overcast
12:12 PM 35.6 °F 27.1 °F 17.6 °F 48% 30.18 in 10.0 mi SW 12.7 mph 20.7 mph N/A   Mostly Cloudy
12:32 PM 35.6 °F 26.6 °F 17.6 °F 48% 30.17 in 10.0 mi West 13.8 mph 24.2 mph N/A   Scattered Clouds
12:52 PM 35.6 °F 27.5 °F 15.8 °F 44% 30.16 in 10.0 mi WSW 11.5 mph 18.4 mph N/A   Clear
1:12 PM 35.6 °F 27.1 °F 23.0 °F 60% 30.16 in 10.0 mi West 12.7 mph 26.5 mph N/A   Scattered Clouds
1:32 PM 33.8 °F 24.8 °F 21.2 °F 60% 30.15 in 10.0 mi West 12.7 mph - N/A   Mostly Cloudy
2:12 PM 33.8 °F 21.0 °F 23.0 °F 65% 30.15 in 4.0 mi South 25.3 mph 33.4 mph N/A Snow Light Snow
2:32 PM 33.8 °F 22.8 °F 26.6 °F 75% 30.14 in 2.5 mi South 18.4 mph - N/A Snow Light Snow
2:52 PM 35.6 °F 26.6 °F 23.0 °F 60% 30.14 in 10.0 mi South 13.8 mph - N/A   Scattered Clouds
3:12 PM 37.4 °F 28.5 °F 21.2 °F 52% 30.13 in 10.0 mi South 15.0 mph 21.9 mph N/A   Scattered Clouds
3:32 PM 37.4 °F 28.2 °F 19.4 °F 48% 30.12 in 10.0 mi South 16.1 mph - N/A   Mostly Cloudy
3:52 PM 37.4 °F 32.1 °F 17.6 °F 45% 30.12 in 10.0 mi West 6.9 mph 23.0 mph N/A   Mostly Cloudy
4:12 PM 37.4 °F 28.5 °F 17.6 °F 45% 30.12 in 10.0 mi West 15.0 mph 19.6 mph N/A Thunderstorm Mostly Cloudy
4:32 PM 33.8 °F 25.8 °F 17.6 °F 52% 30.12 in 2.5 mi South 10.4 mph 17.3 mph N/A Snow Light Snow
4:52 PM 33.8 °F 26.4 °F 21.2 °F 60% 30.11 in 7.0 mi WSW 9.2 mph 17.3 mph N/A Snow , Thunderstorm Light Thunderstorms and Snow
5:12 PM 33.8 °F 26.4 °F 21.2 °F 60% 30.11 in 10.0 mi SSW 9.2 mph - N/A   Overcast
5:32 PM 33.8 °F 24.8 °F 19.4 °F 56% 30.10 in 10.0 mi South 12.7 mph - N/A   Scattered Clouds
5:52 PM 33.8 °F 25.3 °F 19.4 °F 56% 30.10 in 10.0 mi South 11.5 mph - N/A   Overcast
6:12 PM 33.8 °F 26.4 °F 19.4 °F 56% 30.10 in 10.0 mi South 9.2 mph - N/A   Overcast
6:32 PM 33.8 °F 24.8 °F 19.4 °F 56% 30.10 in 10.0 mi South 12.7 mph - N/A   Overcast
6:52 PM 33.8 °F 28.6 °F 17.6 °F 52% 30.10 in 10.0 mi SW 5.8 mph - N/A   Overcast
7:12 PM 33.8 °F 29.6 °F 17.6 °F 52% 30.10 in 10.0 mi SSW 4.6 mph 9.2 mph N/A   Overcast
7:32 PM 33.8 °F 22.5 °F 17.6 °F 52% 30.10 in 10.0 mi WSW 19.6 mph 24.2 mph N/A   Overcast
7:52 PM 33.8 °F 22.5 °F 19.4 °F 56% 30.11 in 10.0 mi South 19.6 mph - N/A   Mostly Cloudy
8:12 PM 33.8 °F 27.7 °F 19.4 °F 56% 30.12 in 10.0 mi WSW 6.9 mph - N/A   Mostly Cloudy
8:32 PM 32.0 °F 21.2 °F 21.2 °F 64% 30.13 in 10.0 mi South 16.1 mph - N/A   Overcast
8:52 PM 30.2 °F 20.2 °F 23.0 °F 75% 30.14 in 4.0 mi South 12.7 mph - N/A Snow Light Snow
9:12 PM 30.2 °F 18.1 °F 23.0 °F 75% 30.13 in 10.0 mi South 18.4 mph - N/A   Scattered Clouds
9:32 PM 32.0 °F 21.2 °F 21.2 °F 64% 30.14 in 10.0 mi South 16.1 mph - N/A Thunderstorm Mostly Cloudy
9:52 PM 32.0 °F 20.8 °F 23.0 °F 69% 30.14 in 10.0 mi South 17.3 mph - N/A Snow Light Snow
10:12 PM 30.2 °F 18.5 °F 21.2 °F 69% 30.13 in 10.0 mi South 17.3 mph - N/A   Mostly Cloudy
10:32 PM 30.2 °F 17.8 °F 23.0 °F 75% 30.12 in 3.0 mi South 19.6 mph - N/A Snow Light Snow
10:52 PM 28.4 °F 16.2 °F 21.2 °F 74% 30.12 in 10.0 mi South 17.3 mph - N/A   Scattered Clouds
11:12 PM 28.4 °F 15.8 °F 23.0 °F 80% 30.12 in 10.0 mi South 18.4 mph - N/A   Scattered Clouds
11:32 PM 28.4 °F 17.0 °F 21.2 °F 74% 30.12 in 10.0 mi South 15.0 mph - N/A   Scattered Clouds
11:52 PM 30.2 °F 18.9 °F 21.2 °F 69% 30.12 in 10.0 mi South 16.1 mph - N/A   Scattered Clouds